Probability
0 0 0 0 0 0 0 0 1 3 5 10 12 13 15 21 25 27 34 42 47 50 53 54 55 50 43 40 43 44 43 42 42 41 41 42 43 43 43 42 43 44 42 38
0 0 0 0 0 0 0 0 1 2 5 10 14 15 17 22 26 29 35 40 43 48 53 56 56 52 48 47 49 51 49 47 45 45 47 48 48 48 48 47 46 45 41 38
0 0 0 0 0 0 0 1 2 3 6 10 15 18 20 25 29 33 37 38 38 44 51 53 53 53 52 53 57 59 57 54 53 53 56 57 55 54 54 53 50 45 40 37
0 0 0 0 0 0 1 2 3 5 8 12 16 18 20 26 33 37 40 39 38 41 45 45 46 48 51 56 60 62 60 59 59 59 60 61 60 59 58 56 52 45 38 34
0 0 0 0 0 0 2 5 6 8 13 17 18 18 20 27 34 39 42 42 41 42 43 43 44 44 47 54 60 61 61 61 61 61 60 59 60 60 58 55 51 44 37 33
0 0 0 0 0 0 2 7 9 12 16 20 21 21 23 29 35 41 44 44 44 44 45 46 47 46 45 49 55 59 60 61 61 61 57 54 54 55 54 51 48 43 37 34
0 0 0 1 1 2 5 10 13 16 18 22 24 26 29 33 39 44 44 43 44 46 48 48 48 47 46 46 51 55 58 59 59 57 53 49 49 51 50 47 44 41 37 34
0 1 2 4 6 9 13 15 17 19 21 23 27 30 33 36 41 44 42 40 42 46 47 47 48 48 48 48 49 51 54 56 55 53 50 47 46 48 48 44 40 38 34 32
2 3 6 9 12 15 18 19 20 22 25 26 28 30 32 34 36 37 35 34 36 40 44 47 49 50 49 49 50 50 51 52 51 48 46 45 45 45 44 41 38 35 32 29
6 7 9 12 14 17 18 18 20 22 25 25 26 28 30 29 28 28 27 27 28 33 39 44 47 49 48 47 48 49 50 49 45 41 38 38 39 39 39 37 35 34 32 29
10 11 11 11 12 15 18 20 21 22 23 24 25 27 28 26 24 24 24 23 25 28 32 36 39 40 40 42 44 46 47 44 39 34 32 30 29 30 32 30 27 27 28 27
9 10 10 10 11 15 21 24 24 23 24 26 26 26 25 23 23 24 24 23 24 26 28 29 31 32 33 35 39 42 42 38 34 32 31 27 22 20 21 19 15 14 17 18
5 5 6 9 13 18 21 24 23 22 24 26 26 23 21 20 20 21 21 21 22 24 25 25 26 28 28 30 34 37 36 33 32 32 32 28 21 16 16 14 9 6 6 6
1 1 3 8 14 18 19 19 19 18 19 21 20 18 17 18 18 17 17 17 19 22 23 22 22 23 25 28 31 32 30 29 30 31 31 28 21 16 16 15 12 9 5 3
0 0 2 6 11 14 15 15 14 14 14 14 13 13 13 13 13 13 13 14 16 19 21 19 18 19 22 26 27 27 25 23 25 26 27 24 19 16 16 16 16 15 11 8
0 0 1 4 7 10 11 12 11 11 10 10 9 8 7 6 7 10 10 10 13 17 18 16 16 17 20 22 22 21 19 17 18 20 21 20 18 17 17 17 15 15 14 13
1 1 1 2 5 7 8 10 9 8 7 6 5 3 2 2 5 8 8 8 12 16 16 15 14 14 15 17 17 17 16 15 15 17 17 17 17 17 17 16 14 13 14 14
0 0 1 2 3 4 5 6 6 4 3 3 2 1 1 3 6 8 8 8 11 13 13 12 11 10 12 14 15 16 16 16 16 15 13 13 14 15 14 12 11 11 13 13
0 0 1 2 3 1 1 2 2 1 1 1 1 2 3 5 6 8 8 8 9 9 9 8 8 10 12 13 15 16 16 16 15 12 10 10 11 12 12 10 9 9 11 13
0 0 1 2 2 1 0 0 0 0 0 0 1 3 4 5 6 6 7 7 7 7 6 7 9 12 13 12 13 14 15 13 12 10 9 9 9 10 10 9 7 8 9 11
0 0 0 1 1 0 0 1 1 1 0 0 1 1 2 3 4 5 6 6 5 4 5 6 10 12 12 11 11 12 12 11 10 10 9 9 8 8 8 8 7 7 8 8
0 0 0 0 0 0 1 2 2 2 1 0 0 0 0 1 2 4 4 4 3 2 3 5 7 7 8 8 9 9 9 9 10 10 9 8 7 7 7 7 8 7 5 5
0 0 0 0 0 2 3 4 3 2 1 0 0 0 1 1 2 2 3 3 2 1 1 3 3 2 4 6 7 7 7 7 8 9 8 6 5 5 6 6 5 4 2 2
0 0 0 0 0 2 4 4 3 2 1 0 0 1 2 3 3 2 2 1 1 0 1 1 1 0 1 4 6 6 6 6 6 7 6 4 2 2 2 2 2 1 0 0
0 0 0 0 0 1 2 2 1 1 1 0 0 1 3 5 4 3 2 1 0 0 0 0 0 0 1 2 3 3 3 3 4 5 4 2 1 0 0 0 0 0 0 0
0 0 0 0 0 0 1 1 1 1 1 0 0 0 2 3 3 3 2 1 0 0 0 0 0 0 0 1 1 1 1 1 1 2 2 1 0 0 0 0 0 0 0 0
0 0 0 0 0 0 0 1 1 1 1 0 0 0 0 1 1 1 1 0 0 0 0 0 0 0 0 0 0 0 0 0 0 0 1 1 0 0 0 0 0 0 0 0
Wind_Speed
10 7 8 11 11 12 13 13 14 11 9 4 3 3 3 3 2 1 1 1 2 4 5 5 5 6 7 7 7 7 8 8 8 8 7 7 7 7 7 7 7 6 6 5
11 10 10 12 13 13 13 12 13 12 8 1 2 2 2 3 2 2 1 1 1 2 3 4 5 6 6 7 7 7 8 8 7 7 7 7 6 6 6 6 6 6 6 5
11 9 10 15 12 13 11 10 11 11 5 2 2 3 3 3 2 3 3 3 3 2 3 3 4 5 6 6 7 8 8 7 7 8 7 7 6 6 6 6 6 6 5 5
9 9 15 4 2 5 7 5 4 3 2 3 4 4 3 1 3 4 5 5 4 3 3 3 4 4 4 6 6 7 7 7 7 7 7 6 6 6 6 6 6 6 6 6
9 12 10 6 4 5 7 6 2 3 3 3 5 5 4 2 5 6 6 6 5 5 4 3 3 3 4 5 6 7 7 7 7 6 6 6 6 6 6 6 6 6 6 6
9 12 11 5 4 2 7 8 2 2 3 4 5 6 2 6 7 7 7 6 5 5 4 3 2 3 4 5 6 7 7 6 6 6 7 7 7 6 5 5 6 6 5 5
12 12 7 2 1 5 10 2 1 3 4 5 6 7 7 7 6 6 6 5 5 5 4 3 3 3 4 4 5 5 5 5 6 6 6 7 6 5 5 5 5 5 5 4
10 12 6 5 1 2 4 5 4 5 5 6 7 7 6 6 6 6 6 5 5 4 4 3 3 3 4 4 4 4 5 5 5 5 5 5 6 6 5 5 5 6 5 5
4 2 5 3 2 4 4 5 5 6 7 7 7 7 6 6 5 6 6 5 5 5 4 4 3 3 4 3 3 3 4 5 5 5 4 4 6 5 5 5 5 5 5 5
4 2 0 2 2 4 5 6 7 7 8 8 8 7 6 5 5 5 5 5 5 5 4 4 4 3 3 3 3 3 5 5 5 4 4 3 3 4 4 4 4 5 5 5
6 4 4 2 3 5 7 7 8 8 8 8 8 7 6 5 5 5 6 5 5 5 5 5 4 3 2 2 2 3 4 5 5 4 4 4 3 2 3 3 3 4 4 4
5 3 5 6 6 7 8 8 8 9 9 8 7 7 6 6 5 6 6 5 5 5 5 5 4 3 2 2 2 3 4 4 4 4 4 4 4 3 4 3 4 4 2 1
6 7 8 8 8 8 8 9 9 8 8 7 6 6 7 6 6 6 6 6 6 6 5 5 4 4 3 2 3 3 4 4 3 3 4 5 5 4 4 3 3 4 3 3
6 7 8 8 8 8 9 9 8 8 7 6 6 6 6 7 7 7 6 6 6 6 5 4 4 3 2 2 3 4 5 4 4 3 4 4 4 4 4 5 5 4 4 5
6 7 8 8 8 8 8 7 7 7 6 6 6 6 6 7 7 7 6 6 5 5 4 4 3 3 2 2 3 4 4 3 3 3 3 3 4 4 4 5 4 4 5 6
7 7 7 7 7 7 7 7 7 7 7 7 6 6 6 6 6 6 5 5 5 5 4 3 3 3 2 2 3 3 3 3 3 3 3 4 4 5 5 5 5 5 4 4
7 7 6 7 7 7 7 7 7 6 6 7 7 6 6 5 5 4 4 4 4 4 3 3 4 3 2 2 3 3 2 3 5 4 3 3 4 4 4 5 5 4 4 4
8 7 7 7 7 7 7 7 6 6 6 6 6 5 5 5 4 4 3 3 3 3 3 3 3 3 3 3 2 2 2 3 3 2 2 2 2 3 3 3 4 4 4 5
7 7 7 7 7 7 7 6 6 5 5 5 4 4 5 5 4 4 3 3 3 3 3 3 2 3 3 2 2 2 3 3 3 2 2 3 3 3 3 3 3 4 4 4
6 6 6 6 6 6 6 6 6 5 4 4 4 4 4 5 4 3 2 2 2 2 2 2 3 2 2 1 2 2 3 3 3 3 2 3 3 3 3 3 3 3 3 4
5 5 5 5 5 5 5 5 5 4 4 4 4 4 4 4 3 3 2 2 2 2 2 2 2 2 1 1 2 2 2 3 3 3 3 3 3 3 3 4 3 3 3 3
5 4 4 4 4 4 4 4 4 3 3 3 4 4 4 4 3 2 2 2 1 1 2 2 1 1 2 1 1 1 2 2 2 2 2 3 3 3 3 3 3 3 3 3
3 3 4 3 3 3 4 3 3 3 3 3 3 3 3 3 2 2 1 1 0 1 1 1 3 3 1 1 0 1 2 2 2 2 2 2 3 3 3 3 3 4 4 4
3 3 3 3 2 3 3 3 3 2 2 2 3 3 2 2 1 1 1 0 1 0 0 3 3 1 1 0 1 1 2 2 2 2 2 2 3 3 3 3 3 3 4 4
2 2 2 2 2 2 2 3 2 2 2 1 2 2 2 1 1 2 2 2 2 1 1 3 3 2 1 1 2 2 2 2 2 2 2 2 2 3 3 3 3 3 3 3
3 2 3 3 2 2 2 2 2 2 2 2 2 2 2 2 2 1 1 2 3 2 1 2 3 3 2 2 3 2 2 3 3 3 3 3 3 3 3 3 3 2 2 2
2 2 2 2 1 2 2 2 2 2 2 2 2 2 2 2 1 2 2 2 2 2 2 2 2 2 2 2 3 3 3 3 2 3 3 3 2 2 2 3 2 2 2 2
Wind_Direction
254 255 237 231 230 226 234 250 258 251 242 248 288 320 332 339 354 29 88 139 175 183 184 187 194 197 199 200 195 194 194 199 200 200 198 201 203 205 204 201 199 193 193 193
236 235 240 240 236 235 236 243 249 251 243 269 290 328 343 344 357 352 335 294 243 211 200 200 201 206 204 201 194 192 198 202 197 193 192 194 200 203 200 196 194 190 190 185
234 225 237 236 236 236 232 237 246 248 250 272 281 308 309 317 343 350 339 324 298 267 247 231 219 211 210 206 193 193 197 196 191 189 188 187 187 186 189 183 180 183 184 186
239 222 235 219 197 235 227 221 241 265 270 269 288 284 266 312 354 340 332 324 311 295 272 252 235 223 214 202 195 193 193 191 189 189 189 180 177 182 187 185 180 184 185 187
236 230 228 204 196 217 224 215 215 258 277 303 316 266 211 27 342 329 325 324 318 307 291 276 248 229 219 205 198 197 195 193 189 185 182 181 184 184 185 185 187 187 187 188
233 244 236 187 145 234 240 220 168 278 291 308 304 270 307 348 327 326 327 329 325 313 300 289 278 238 224 217 207 205 201 194 185 181 182 185 188 187 186 187 188 184 181 182
234 239 237 89 166 216 229 227 14 301 298 293 293 309 323 315 316 319 321 323 321 313 302 299 287 257 232 225 219 213 205 198 189 182 183 183 179 179 181 185 183 180 172 172
233 238 217 76 188 245 350 354 322 306 303 301 306 309 311 312 316 319 320 321 319 312 303 298 277 255 244 236 233 212 197 194 193 185 181 176 173 176 178 179 179 178 174 171
265 310 54 40 352 0 335 319 317 310 306 300 298 301 303 308 316 320 320 321 318 314 310 297 280 265 254 245 238 216 197 190 183 175 171 175 175 176 177 180 188 187 184 182
254 215 288 315 316 326 323 313 308 304 300 293 291 295 296 303 308 312 312 311 310 305 299 294 285 268 253 226 207 204 198 191 177 173 172 171 177 181 178 173 189 192 190 188
248 269 278 255 311 319 316 307 301 299 296 293 290 288 291 293 297 301 299 301 302 298 295 294 293 279 255 237 207 209 199 188 181 176 173 175 180 176 182 164 182 198 199 199
276 310 295 299 304 304 300 297 297 295 291 289 289 286 285 288 292 294 295 298 298 296 295 295 288 269 251 220 202 214 219 204 193 184 180 186 172 142 77 112 120 124 120 209
292 298 297 292 292 294 294 296 295 289 286 290 293 288 284 279 279 281 284 287 289 291 291 288 282 270 250 226 202 203 219 212 204 189 189 194 186 176 165 131 107 106 123 131
278 282 282 287 293 297 297 296 293 290 288 288 289 286 282 279 278 277 278 284 286 288 284 278 273 273 267 233 210 204 210 201 205 200 198 195 192 189 187 186 178 165 149 150
268 273 279 288 291 293 293 290 288 287 287 289 287 284 282 280 279 280 280 279 280 282 282 279 270 270 266 232 219 217 216 206 201 204 200 192 188 190 191 193 190 172 158 155
279 279 278 282 290 294 294 291 288 289 289 289 289 290 289 285 282 279 274 268 262 268 279 286 278 269 245 225 226 224 214 193 202 212 204 191 190 194 190 188 184 179 177 167
273 280 285 288 292 292 294 299 296 291 291 290 290 290 287 281 280 276 276 279 275 272 272 273 276 279 261 236 234 226 210 182 188 210 205 191 187 194 196 195 188 180 177 156
269 276 283 285 288 290 293 297 295 293 293 294 296 294 289 281 279 278 278 278 278 284 283 274 273 275 275 264 258 247 215 202 196 193 181 173 175 188 198 193 183 181 168 152
276 279 284 288 287 285 289 293 294 295 295 292 290 292 293 288 282 276 271 268 270 273 276 277 264 258 252 242 242 210 205 195 186 179 172 154 175 181 184 189 185 180 169 161
290 292 294 292 289 290 290 291 290 288 288 292 290 288 290 290 281 271 264 265 282 288 285 286 263 256 244 237 256 212 197 193 183 175 184 180 175 176 174 176 177 178 176 171
303 302 299 295 295 296 297 297 292 290 295 294 292 288 285 287 286 280 265 264 290 306 291 267 253 245 245 248 227 199 184 178 173 166 173 176 167 168 169 166 168 171 171 168
321 317 309 305 306 311 315 312 303 301 308 309 304 296 285 279 278 274 271 280 291 301 265 248 244 42 15 298 191 144 144 148 150 154 161 163 161 166 167 161 162 158 154 151
325 323 321 324 324 321 321 322 318 316 318 318 315 306 302 304 297 286 288 308 283 326 283 23 54 56 354 259 118 131 133 130 135 141 147 152 149 152 152 150 148 147 142 141
330 330 332 334 328 320 323 332 339 336 331 325 323 317 305 296 294 300 310 58 54 0 14 77 85 87 245 230 112 119 121 123 132 141 146 142 138 140 142 143 143 143 142 145
339 339 342 337 330 335 341 334 323 320 317 324 330 332 321 321 333 2 20 49 75 123 128 122 148 181 210 114 91 86 89 82 81 91 109 113 120 125 130 133 131 132 130 133
334 336 348 340 338 330 331 334 341 352 344 352 4 7 14 25 42 53 77 91 97 114 115 119 130 156 141 115 108 110 110 117 126 121 107 105 106 108 111 113 118 123 127 136
320 332 325 326 339 348 345 344 349 355 356 357 10 20 27 38 54 69 82 89 92 94 94 97 104 113 114 113 109 111 115 114 109 105 108 107 104 105 113 124 129 131 140 145